CZ-6A DEB, 54338

Orbit data source: Space-Track

CZ-6A DEB, 54338 is space debris in SSO originally from a launch on Fri, 11 Nov 2022 UTC launched from the Taiyaun Space Center, China (TSC). Debris objects in space refer to the collection of defunct objects orbiting the Earth. Examples of debris include non-operational satellites, rocket bodies, and fragments generated from explosions, collisions, or faulty payload assembly.

Loading next visibility...
Identifier
54338, 2022-151CH
Orbit
SSO
Country
Flag of CNCN / PRC
Related business
Manufacturer
SAST
Mission
Spacecraft
Bus & Motor
Unknown
Mass
Unknown
Launch date (UTC)
2022-11-11 (3 years ago)
Launch vehicle
Unknown
Launch site
Taiyaun Space Center, China (TSC)
Object type
Payload
Rocket body
Debris
Shape & HBR
Unknown shape, 0.2 m
Radar Cross Section
Small (<0.1 m²)

Expand to show TLE details & history
Last TLE update: 20 hours ago

TLE from 20 hours ago
0 CZ-6A DEB
1 54338U 22151CH  25351.61148106  .00001069  00000-0  58061-3 0  9996
2 54338  98.8364 355.2094 0040457 121.8225 238.6897 14.14064167159127
Epoch: 2025-12-17T14:40Z
TLE epoch observation values (Epoch: 2025-12-17T14:40:31.963Z)
Latitude
-0.00001°
Longitude
48.59737°
Altitude
863.676 km
Speed
7.413 km/s
True Right ascension
23h 40m 50s
True Declination
0° 00' 00"
Sunlit
Object was in daylight at epoch
Visualization orbit readout
Latitude
Unknown
Longitude
Unknown
Altitude
Unknown
Speed
Unknown
Apparent Right ascension
Unknown
Apparent Declination
Unknown
Sunlit
N/A
Visualization observer readout
Local Sidereal Time
09:57:24
Azimuth
Unknown
Elevation
Unknown
Doppler factor
Unknown
Orbital elements
Apogee altitude
871.883 km
Perigee altitude
813.457 km
Semi-major axis
7,220.807 km
Eccentricity
0.00405
Inclination
98.8364°
RAAN
355.2094°
Arg. of periapsis
121.8225°
True anomaly
238.29466°
Mean anomaly
238.6897°
Eccentric anomaly
238.49207°
Mean motion
3.53724 °/min
Orbital period
101.77 mins
BSTAR
0.00058061
Loading maneuver chart data...
Computing Atmospheric mass density...
Loading historical data...
Loading historical data...
Loading historical data...
Loading historical data...
Loading historical data...
Loading historical data...
Loading historical data...

Documentation

Showing up to 5 results
|